This demonstration page uses our WeatherBlox Daily Observations layout. Learn more.

Left ArrowRight Arrow

44.89941, -97.11507

Hourly Observations for November 27, 2019

Temp ( °F °C ) Dew Point ( °F °C ) Humidity (%) Winds ( mph kmh ) Pressure ( in mb ) Visibility ( mi km ) Precip ( " mm )
12:43 am 00:43 Cloudy 28 -2.2 25 -3.9 88 88 N 22 35 29.85 1011 10 16 0.00 0.00
12:53 am 00:53 Cloudy with Light Snow 28 -2.2 25 -3.9 88 88 N 18 30 29.82 1010 7 11 0.00 0.00
1:05 am 01:05 Windy with Snow Likely 28 -2.2 25 -3.9 88 88 N 20 31 29.85 1011 3 4 0.00 0.00
1:26 am 01:26 Windy with Snow Likely 28 -2.2 25 -3.9 88 88 N 22 35 29.86 1011 3 5 0.00 0.00
1:53 am 01:53 Windy with Snow Likely 28 -2.2 24 -4.4 85 85 N 20 31 29.84 1010 3 5 0.00 0.00
2:53 am 02:53 Cloudy 27 -2.8 23 -5 85 85 N 21 33 29.87 1012 8 13 0.00 0.00
3:53 am 03:53 Cloudy 28 -2.2 24 -4.4 85 85 N 22 35 29.90 1012 10 16 0.00 0.00
4:53 am 04:53 Cloudy 27 -2.8 22 -5.6 81 81 N 26 43 29.92 1013 10 16 0.00 0.00
5:53 am 05:53 Cloudy 24 -4.4 20 -6.7 84 84 NNW 28 44 29.98 1015 10 16 0.00 0.00
6:53 am 06:53 Cloudy 25 -3.9 21 -6.1 85 85 NNW 30 48 30.01 1016 10 16 0.00 0.00
7:12 am 07:12 Cloudy 24 -4.4 21 -6.1 88 88 NNW 25 41 30.06 1018 10 16 0.00 0.00
7:21 am 07:21 Cloudy 24 -4.4 20 -6.7 84 84 N 25 41 30.06 1018 10 16 0.00 0.00
7:53 am 07:53 Cloudy 24 -4.4 20 -6.7 84 84 NNW 23 37 30.04 1017 10 16 0.00 0.00
8:53 am 08:53 Cloudy 24 -4.4 21 -6.1 88 88 NNW 24 39 30.09 1019 10 16 0.00 0.00
9:53 am 09:53 Cloudy 24 -4.4 20 -6.7 84 84 N 23 37 30.13 1020 10 16 0.00 0.00
10:53 am 10:53 Cloudy 25 -3.9 20 -6.7 81 81 NNW 21 33 30.19 1022 10 16 0.00 0.00
11:53 am 11:53 Cloudy 25 -3.9 21 -6.1 85 85 NNW 24 39 30.20 1023 10 16 0.00 0.00
12:53 pm 12:53 Cloudy 24 -4.4 20 -6.7 84 84 N 21 33 30.23 1024 10 16 0.00 0.00
1:26 pm 13:26 Cloudy 24 -4.4 19 -7.2 81 81 NNW 15 24 30.29 1026 10 16 0.00 0.00
1:53 pm 13:53 Cloudy 24 -4.4 19 -7.2 81 81 NNW 18 30 30.25 1024 10 16 0.00 0.00
2:21 pm 14:21 Cloudy 24 -4.4 19 -7.2 81 81 NNW 17 28 30.31 1026 10 16 0.00 0.00
2:53 pm 14:53 Cloudy 24 -4.4 19 -7.2 81 81 NNW 20 31 30.27 1025 10 16 0.00 0.00
3:45 pm 15:45 Cloudy 24 -4.4 18 -7.8 77 77 NNW 16 26 30.35 1028 10 16 0.00 0.00
3:53 pm 15:53 Cloudy 24 -4.4 18 -7.8 77 77 NNW 13 20 30.32 1027 10 16 0.00 0.00
4:53 pm 16:53 Cloudy 24 -4.4 19 -7.2 81 81 NNW 14 22 30.34 1027 10 16 0.00 0.00
5:53 pm 17:53 Cloudy 23 -5 18 -7.8 81 81 N 13 20 30.37 1028 10 16 0.00 0.00
6:53 pm 18:53 Cloudy 22 -5.6 17 -8.3 82 82 N 12 19 30.39 1029 10 16 0.00 0.00
7:53 pm 19:53 Cloudy 22 -5.6 17 -8.3 82 82 NNE 9 15 30.43 1031 10 16 0.00 0.00
8:31 pm 20:31 Cloudy 23 -5 18 -7.8 81 81 NNW 10 17 30.49 1032 10 16 0.00 0.00
8:53 pm 20:53 Cloudy 22 -5.6 18 -7.8 85 85 N 14 22 30.46 1031 10 16 0.00 0.00
9:53 pm 21:53 Cloudy 22 -5.6 17 -8.3 82 82 NE 9 15 30.47 1032 10 16 0.00 0.00
10:53 pm 22:53 Cloudy 21 -6.1 17 -8.3 85 85 NNE 8 13 30.48 1032 10 16 0.00 0.00
11:53 pm 23:53 Cloudy 21 -6.1 17 -8.3 85 85 NE 9 15 30.49 1033 10 16 0.00 0.00

Powered by AerisWeather